• In Hungary
  • List of Countries
  • For 7 days
  • Water Temperature
  • Satellite Maps
  • Weather Map
  • News
  • Weather Widgets
  • user-avatar
    Login

    Hourly Weather Verhnij Rogachek

    Today, 23 September, Sunday

    Time Temperature Precipitation Wind Pressure Humidity
    00:00 +20°C° 0 mm 3 mps 754 mmHg 56%
    01:00 +19°C° 0 mm 3 mps 754 mmHg 57%
    02:00 +19°C° 0 mm 2 mps 754 mmHg 58%
    03:00 +19°C° 0 mm 3 mps 754 mmHg 59%
    04:00 +18°C° 0 mm 3 mps 754 mmHg 60%
    05:00 +18°C° 0 mm 3 mps 754 mmHg 61%
    06:00 +18°C° 0.1 mm 3 mps 754 mmHg 62%
    07:00 +19°C° 0.1 mm 4 mps 754 mmHg 63%
    08:00 +19°C° 0.1 mm 5 mps 754 mmHg 64%
    09:00 +17°C° 0.4 mm 5 mps 755 mmHg 68%
    10:00 +17°C° 0.4 mm 5 mps 755 mmHg 72%
    11:00 +16°C° 0.4 mm 5 mps 756 mmHg 75%
    12:00 +17°C° 0.1 mm 5 mps 756 mmHg 67%
    13:00 +19°C° 0.1 mm 5 mps 756 mmHg 59%
    14:00 +20°C° 0.1 mm 5 mps 756 mmHg 52%
    15:00 +20°C° 0 mm 4 mps 756 mmHg 49%
    16:00 +20°C° 0 mm 4 mps 756 mmHg 46%
    17:00 +19°C° 0 mm 3 mps 756 mmHg 43%
    18:00 +18°C° 0 mm 2 mps 756 mmHg 46%
    19:00 +17°C° 0 mm 2 mps 757 mmHg 48%
    20:00 +16°C° 0 mm 1 mps 757 mmHg 51%
    21:00 +16°C° 0 mm 1 mps 757 mmHg 52%
    22:00 +15°C° 0 mm 0 mps 757 mmHg 53%
    23:00 +14°C° 0 mm 0 mps 758 mmHg 54%

    Tomorrow, 24 September, Monday

    Time Temperature Precipitation Wind Pressure Humidity
    00:00 +15°C° 0 mm 1 mps 757 mmHg 54%
    01:00 +15°C° 0 mm 1 mps 757 mmHg 54%
    02:00 +14°C° 0 mm 2 mps 757 mmHg 55%
    03:00 +14°C° 0 mm 2 mps 757 mmHg 55%
    04:00 +13°C° 0 mm 3 mps 756 mmHg 56%
    05:00 +13°C° 0 mm 3 mps 756 mmHg 57%
    06:00 +14°C° 0 mm 4 mps 756 mmHg 54%
    07:00 +16°C° 0 mm 6 mps 755 mmHg 51%
    08:00 +17°C° 0 mm 7 mps 755 mmHg 48%
    09:00 +20°C° 0 mm 7 mps 754 mmHg 45%
    10:00 +21°C° 0 mm 8 mps 754 mmHg 41%
    11:00 +22°C° 0 mm 9 mps 753 mmHg 37%
    12:00 +23°C° 0 mm 9 mps 752 mmHg 38%
    13:00 +24°C° 0 mm 9 mps 751 mmHg 39%
    14:00 +26°C° 0 mm 8 mps 751 mmHg 41%
    15:00 +24°C° 0 mm 8 mps 750 mmHg 46%
    16:00 +24°C° 0 mm 8 mps 750 mmHg 51%
    17:00 +23°C° 0 mm 7 mps 749 mmHg 57%
    18:00 +22°C° 0.3 mm 8 mps 750 mmHg 62%
    19:00 +21°C° 0.3 mm 8 mps 750 mmHg 68%
    20:00 +18°C° 0.3 mm 8 mps 750 mmHg 74%
    21:00 +17°C° 0.6 mm 8 mps 751 mmHg 73%
    22:00 +15°C° 0.6 mm 8 mps 752 mmHg 72%
    23:00 +12°C° 0.6 mm 7 mps 752 mmHg 72%

    Day after tomorrow, 25 September, Tuesday

    Time Temperature Precipitation Wind Pressure Humidity
    00:00 +12°C° 1.1 mm 7 mps 753 mmHg 73%
    01:00 +13°C° 1.1 mm 6 mps 753 mmHg 73%
    02:00 +12°C° 1.1 mm 5 mps 754 mmHg 74%
    03:00 +12°C° 0.1 mm 5 mps 754 mmHg 75%
    04:00 +10°C° 0.1 mm 5 mps 754 mmHg 75%
    05:00 +10°C° 0.1 mm 5 mps 754 mmHg 75%
    06:00 +10°C° 0 mm 5 mps 755 mmHg 71%
    07:00 +11°C° 0 mm 6 mps 755 mmHg 68%
    08:00 +11°C° 0 mm 6 mps 755 mmHg 64%
    09:00 +13°C° 0 mm 6 mps 756 mmHg 58%
    10:00 +14°C° 0 mm 7 mps 756 mmHg 52%
    11:00 +15°C° 0 mm 7 mps 756 mmHg 46%
    12:00 +15°C° 0 mm 7 mps 756 mmHg 44%
    13:00 +16°C° 0 mm 7 mps 756 mmHg 42%
    14:00 +16°C° 0 mm 7 mps 756 mmHg 40%
    15:00 +15°C° 0.1 mm 7 mps 756 mmHg 42%
    16:00 +15°C° 0.1 mm 7 mps 757 mmHg 45%
    17:00 +14°C° 0.1 mm 7 mps 757 mmHg 47%
    18:00 +13°C° 0 mm 6 mps 758 mmHg 51%
    19:00 +11°C° 0 mm 6 mps 759 mmHg 55%
    20:00 +10°C° 0 mm 5 mps 759 mmHg 58%
    21:00 +10°C° 0 mm 5 mps 760 mmHg 58%
    22:00 +9°C° 0 mm 5 mps 760 mmHg 58%
    23:00 +9°C° 0 mm 5 mps 761 mmHg 58%

    26 September, Wednesday

    Time Temperature Precipitation Wind Pressure Humidity
    00:00 +8°C° 0 mm 5 mps 761 mmHg 59%
    01:00 +8°C° 0 mm 5 mps 761 mmHg 59%
    02:00 +8°C° 0 mm 5 mps 762 mmHg 60%
    03:00 +7°C° 0 mm 5 mps 762 mmHg 62%
    04:00 +7°C° 0 mm 4 mps 763 mmHg 64%
    05:00 +6°C° 0 mm 4 mps 763 mmHg 66%
    06:00 +7°C° 0 mm 5 mps 763 mmHg 64%
    07:00 +8°C° 0 mm 5 mps 764 mmHg 61%
    08:00 +8°C° 0 mm 6 mps 764 mmHg 59%
    09:00 +9°C° 0 mm 5 mps 765 mmHg 55%
    10:00 +10°C° 0 mm 5 mps 765 mmHg 50%
    11:00 +12°C° 0 mm 5 mps 765 mmHg 46%
    12:00 +13°C° 0 mm 5 mps 765 mmHg 44%
    13:00 +13°C° 0 mm 5 mps 765 mmHg 42%
    14:00 +14°C° 0 mm 5 mps 765 mmHg 40%
    15:00 +13°C° 0 mm 5 mps 765 mmHg 40%
    16:00 +13°C° 0 mm 5 mps 765 mmHg 40%
    17:00 +13°C° 0 mm 4 mps 765 mmHg 41%
    18:00 +12°C° 0 mm 4 mps 766 mmHg 43%
    19:00 +11°C° 0 mm 4 mps 766 mmHg 46%
    20:00 +10°C° 0 mm 3 mps 767 mmHg 49%
    21:00 +9°C° 0 mm 3 mps 767 mmHg 50%
    22:00 +9°C° 0 mm 3 mps 767 mmHg 50%
    23:00 +8°C° 0 mm 2 mps 767 mmHg 51%

    27 September, Thursday

    Time Temperature Precipitation Wind Pressure Humidity
    00:00 +8°C° 0 mm 2 mps 766 mmHg 52%
    01:00 +8°C° 0 mm 2 mps 766 mmHg 52%
    02:00 +7°C° 0 mm 2 mps 766 mmHg 53%
    03:00 +7°C° 0 mm 2 mps 766 mmHg 53%
    04:00 +7°C° 0 mm 2 mps 766 mmHg 54%
    05:00 +6°C° 0 mm 2 mps 765 mmHg 54%
    06:00 +8°C° 0 mm 2 mps 765 mmHg 51%
    07:00 +9°C° 0 mm 2 mps 765 mmHg 47%
    08:00 +10°C° 0 mm 3 mps 765 mmHg 43%
    09:00 +11°C° 0 mm 3 mps 765 mmHg 39%
    10:00 +13°C° 0 mm 3 mps 764 mmHg 36%
    11:00 +14°C° 0 mm 4 mps 764 mmHg 32%
    12:00 +15°C° 0 mm 4 mps 764 mmHg 30%
    13:00 +17°C° 0 mm 4 mps 763 mmHg 29%
    14:00 +18°C° 0 mm 4 mps 762 mmHg 27%
    15:00 +17°C° 0 mm 4 mps 762 mmHg 29%
    16:00 +17°C° 0 mm 4 mps 761 mmHg 31%
    17:00 +16°C° 0 mm 3 mps 761 mmHg 32%
    18:00 +14°C° 0 mm 4 mps 761 mmHg 35%
    19:00 +13°C° 0 mm 4 mps 761 mmHg 38%
    20:00 +12°C° 0 mm 4 mps 761 mmHg 41%
    21:00 +12°C° 0 mm 4 mps 761 mmHg 44%
    22:00 +11°C° 0 mm 4 mps 760 mmHg 47%
    23:00 +11°C° 0 mm 4 mps 760 mmHg 50%

    28 September, Friday

    Time Temperature Precipitation Wind Pressure Humidity
    00:00 +11°C° 0 mm 4 mps 760 mmHg 51%
    01:00 +11°C° 0 mm 4 mps 759 mmHg 53%
    02:00 +10°C° 0 mm 4 mps 759 mmHg 55%
    03:00 +10°C° 0 mm 4 mps 759 mmHg 57%
    04:00 +10°C° 0 mm 3 mps 759 mmHg 59%
    05:00 +10°C° 0 mm 3 mps 758 mmHg 60%
    06:00 +11°C° 0 mm 3 mps 758 mmHg 56%
    07:00 +13°C° 0 mm 4 mps 758 mmHg 52%
    08:00 +14°C° 0 mm 4 mps 758 mmHg 47%
    09:00 +17°C° 0 mm 4 mps 758 mmHg 41%
    10:00 +19°C° 0 mm 4 mps 758 mmHg 35%
    11:00 +21°C° 0 mm 4 mps 758 mmHg 29%
    12:00 +22°C° 0 mm 4 mps 757 mmHg 29%
    13:00 +23°C° 0 mm 4 mps 757 mmHg 29%
    14:00 +23°C° 0 mm 4 mps 756 mmHg 28%
    15:00 +24°C° 0 mm 3 mps 756 mmHg 31%
    16:00 +22°C° 0 mm 3 mps 756 mmHg 34%
    17:00 +21°C° 0 mm 2 mps 755 mmHg 37%
    18:00 +20°C° 0 mm 2 mps 755 mmHg 39%
    19:00 +19°C° 0 mm 2 mps 756 mmHg 41%
    20:00 +18°C° 0 mm 2 mps 756 mmHg 43%
    21:00 +17°C° 0 mm 2 mps 756 mmHg 44%
    22:00 +17°C° 0 mm 2 mps 756 mmHg 46%
    23:00 +16°C° 0 mm 2 mps 756 mmHg 47%
    Show more